EDT,Max TemperatureF,Mean TemperatureF,Min TemperatureF,Max Dew PointF,MeanDew PointF,Min DewpointF,Max Humidity, Mean Humidity, Min Humidity, Max Sea Level PressureIn, Mean Sea Level PressureIn, Min Sea Level PressureIn, Max VisibilityMiles, Mean VisibilityMiles, Min VisibilityMiles, Max Wind SpeedMPH, Mean Wind SpeedMPH, Max Gust SpeedMPH,PrecipitationIn, CloudCover, Events, WindDirDegrees
2011-10-1,59,54,50,46,40,33,74,59,38,30.07,29.96,29.85,10,10,10,15,5,21,0.00,0,,315
2011-10-2,69,60,51,43,37,32,67,42,26,30.10,30.04,29.99,10,10,10,9,5,,0.01,0,,315
2011-10-3,73,57,41,47,40,34,89,59,26,30.17,30.12,30.07,10,10,10,6,2,,0.00,0,,151
2011-10-4,75,60,46,54,47,43,90,64,35,30.26,30.21,30.17,10,10,10,7,1,,0.00,0,,253
2011-10-5,81,65,50,55,51,47,89,68,35,30.29,30.22,30.16,10,10,10,6,1,,0.00,0,,121
2011-10-6,78,66,54,54,52,48,93,64,36,30.32,30.27,30.21,10,10,10,12,4,,0.00,0,,66
2011-10-7,75,65,55,54,50,46,86,63,36,30.40,30.35,30.31,10,10,10,12,6,,0.00,0,,60
2011-10-8,75,65,55,52,48,46,74,58,40,30.45,30.39,30.32,10,10,10,15,8,,0.00,0,,55
2011-10-9,73,67,61,56,52,45,67,60,51,30.35,30.29,30.21,10,10,10,17,11,24,0.00,3,,52
2011-10-10,68,65,62,58,56,54,84,72,65,30.20,30.11,30.03,10,10,7,17,12,26,0.06,6,Rain,46
2011-10-11,64,62,59,59,57,54,94,86,72,30.01,29.95,29.91,10,8,2,18,13,28,0.29,8,Rain,49
2011-10-12,73,66,59,64,59,55,94,85,70,29.93,29.83,29.76,10,10,10,7,4,,0.01,8,Rain,62
2011-10-13,75,68,59,64,61,51,100,86,55,29.80,29.70,29.58,10,7,2,15,6,20,0.06,7,Rain,217
2011-10-14,77,66,57,56,48,37,90,58,24,29.90,29.77,29.65,10,10,10,22,11,33,0.00,0,,260
2011-10-15,79,68,57,47,41,35,69,42,21,30.08,29.98,29.90,10,10,10,22,11,33,0.00,0,,263
2011-10-16,84,64,45,50,44,39,90,53,20,30.16,30.07,30.01,10,10,10,13,3,22,0.00,0,,235
2011-10-17,84,68,51,55,52,47,88,64,33,30.01,29.94,29.86,10,10,10,14,3,18,0.00,0,,222
2011-10-18,80,64,50,65,57,48,94,81,48,29.85,29.75,29.60,10,9,4,9,2,,0.38,3,Rain,112
2011-10-19,64,56,48,63,54,39,100,87,65,29.65,29.47,29.37,10,7,2,24,11,34,0.31,7,Rain,214
2011-10-20,54,50,46,40,38,32,74,65,53,30.02,29.85,29.65,10,10,10,21,16,32,0.00,3,,259
2011-10-21,62,49,37,43,39,35,93,70,41,30.10,30.06,30.01,10,10,9,7,3,,0.00,0,,261
2011-10-22,66,52,39,45,40,36,93,68,39,30.17,30.11,30.08,10,10,10,9,1,,0.00,0,,52
2011-10-23,68,54,39,48,43,39,100,73,39,30.15,30.10,30.05,10,10,9,7,1,,0.00,0,,224
2011-10-24,73,60,48,52,47,41,93,66,31,30.14,30.10,30.06,10,10,9,8,2,,0.00,1,,248
2011-10-25,75,60,44,50,46,42,93,66,34,30.26,30.19,30.15,10,10,10,8,2,,0.01,0,,117
2011-10-26,75,60,45,51,46,42,93,68,33,30.16,30.05,29.96,10,10,7,17,3,23,0.00,0,,228
2011-10-27,77,62,46,55,51,44,93,69,42,29.96,29.89,29.83,10,10,9,20,5,24,0.00,1,,238
2011-10-28,62,52,43,55,47,40,93,80,62,30.03,29.98,29.88,10,9,5,17,8,22,0.13,7,Rain,53
2011-10-29,61,52,39,43,38,27,93,74,32,30.18,30.02,29.97,10,10,6,9,4,17,0.20,5,Rain,25
2011-10-30,61,45,30,37,32,24,93,63,27,30.31,30.26,30.18,10,10,10,6,1,,0.00,0,,102
2011-10-31,62,48,35,40,36,32,89,67,32,30.28,30.23,30.16,10,10,10,6,2,,0.00,0,,34